timestamp,wind_dir_avg,wind_spd_avg,wind_spd_max_dir,wind_spd_gust,battery_voltage,lat,long
2023-06-14 00:04:01+00:00,34.0,5.28,34.0,5.49,13.13,47.59359,-54.27349
2023-06-14 00:14:00+00:00,22.0,4.5,23.0,5.02,12.57,47.59359,-54.27349
2023-06-14 00:24:00+00:00,33.0,4.76,33.0,4.93,12.57,47.59359,-54.27349
2023-06-14 00:34:00+00:00,25.0,5.09,26.0,5.23,12.57,47.59359,-54.27349
2023-06-14 00:44:00+00:00,11.0,4.88,8.0,5.82,12.57,47.59359,-54.27349
2023-06-14 00:54:00+00:00,20.0,5.93,21.0,6.34,12.57,47.59359,-54.27349
2023-06-14 01:04:00+00:00,16.0,4.92,15.0,5.24,12.57,47.59359,-54.27349
2023-06-14 01:14:01+00:00,8.0,3.94,8.0,4.3,12.41,47.59359,-54.27349
2023-06-14 01:24:01+00:00,335.0,2.31,341.0,2.71,12.41,47.59359,-54.27349
2023-06-14 01:34:01+00:00,322.0,2.58,323.0,2.85,12.41,47.59359,-54.27349
2023-06-14 01:44:01+00:00,329.0,2.45,329.0,2.55,12.41,47.59359,-54.27349
2023-06-14 01:54:01+00:00,359.0,2.94,357.0,3.12,12.41,47.59359,-54.27349
2023-06-14 02:04:01+00:00,118.0,2.2,114.0,2.7,12.41,47.59359,-54.27349
2023-06-14 02:14:00+00:00,124.0,1.49,125.0,1.81,12.41,47.59359,-54.27349
2023-06-14 02:24:00+00:00,142.0,1.99,138.0,2.24,12.41,47.59359,-54.27349
2023-06-14 02:34:00+00:00,134.0,1.49,134.0,1.58,12.41,47.59359,-54.27349
2023-06-14 02:44:00+00:00,136.0,1.45,138.0,1.54,12.41,47.59359,-54.27349
2023-06-14 02:54:00+00:00,184.0,1.12,178.0,1.26,12.41,47.59359,-54.27349
2023-06-14 03:04:00+00:00,262.0,1.44,265.0,1.82,12.41,47.59359,-54.27349
2023-06-14 03:14:00+00:00,315.0,1.5,307.0,1.82,12.33,47.59359,-54.27349
2023-06-14 03:24:00+00:00,299.0,2.25,300.0,2.38,12.33,47.59359,-54.27349
2023-06-14 03:34:00+00:00,310.0,2.22,311.0,2.31,12.33,47.59359,-54.27349
2023-06-14 03:44:00+00:00,337.0,1.62,340.0,1.87,12.33,47.59359,-54.27349
2023-06-14 03:54:00+00:00,18.0,1.64,16.0,1.8,12.33,47.59359,-54.27349
2023-06-14 04:04:00+00:00,357.0,1.78,357.0,2.0,12.33,47.59359,-54.27349
2023-06-14 04:14:01+00:00,333.0,2.03,327.0,2.38,12.33,47.59359,-54.27349
2023-06-14 04:24:01+00:00,226.0,1.11,228.0,1.63,12.33,47.59359,-54.27349
2023-06-14 04:34:01+00:00,203.0,1.84,211.0,2.06,12.33,47.59359,-54.27349
2023-06-14 04:44:01+00:00,309.0,3.54,311.0,4.06,12.33,47.59359,-54.27349
2023-06-14 04:54:01+00:00,313.0,4.85,315.0,5.1,12.33,47.59359,-54.27349
2023-06-14 05:04:01+00:00,319.0,4.05,319.0,4.4,12.33,47.59359,-54.27349
2023-06-14 05:14:00+00:00,335.0,2.98,334.0,3.32,12.25,47.59359,-54.27349
2023-06-14 05:24:00+00:00,341.0,5.31,342.0,5.57,12.25,47.59359,-54.27349
2023-06-14 05:34:00+00:00,334.0,2.96,326.0,3.66,12.25,47.59359,-54.27349
2023-06-14 05:44:00+00:00,331.0,5.9,331.0,6.29,12.25,47.59359,-54.27349
2023-06-14 05:54:00+00:00,347.0,6.47,348.0,6.75,12.25,47.59359,-54.27349
2023-06-14 06:04:00+00:00,347.0,4.98,347.0,5.19,12.25,47.59359,-54.27349
2023-06-14 06:14:01+00:00,6.0,2.56,7.0,3.1,12.25,47.59359,-54.27349
2023-06-14 06:24:01+00:00,344.0,2.7,343.0,3.02,12.25,47.59359,-54.27349
2023-06-14 06:34:01+00:00,352.0,4.52,354.0,4.61,12.25,47.59359,-54.27349
2023-06-14 06:44:01+00:00,337.0,2.76,337.0,2.97,12.25,47.59359,-54.27349
2023-06-14 06:54:01+00:00,347.0,3.32,344.0,3.63,12.25,47.59359,-54.27349
2023-06-14 07:04:01+00:00,357.0,3.97,356.0,4.23,12.25,47.59359,-54.27349
2023-06-14 07:14:00+00:00,343.0,3.57,342.0,3.8,12.25,47.59359,-54.27349
2023-06-14 07:24:00+00:00,343.0,3.11,342.0,3.26,12.25,47.59359,-54.27349
2023-06-14 07:34:00+00:00,352.0,2.61,350.0,2.77,12.25,47.59359,-54.27349
2023-06-14 07:44:00+00:00,355.0,1.93,358.0,2.13,12.25,47.59359,-54.27349
2023-06-14 07:54:00+00:00,339.0,1.79,337.0,1.91,12.25,47.59359,-54.27349
2023-06-14 08:04:00+00:00,2.0,0.41,14.0,0.53,12.25,47.59359,-54.27349
2023-06-14 08:14:00+00:00,356.0,0.74,4.0,1.01,12.17,47.59359,-54.27349
2023-06-14 08:24:00+00:00,342.0,0.43,343.0,0.55,12.17,47.59359,-54.27349
2023-06-14 08:34:00+00:00,115.0,0.67,120.0,0.91,12.17,47.59359,-54.27349
2023-06-14 08:44:00+00:00,338.0,0.05,353.0,0.28,12.17,47.59359,-54.27349
2023-06-14 08:54:00+00:00,214.0,0.71,213.0,0.85,12.17,47.59359,-54.27349
2023-06-14 09:04:00+00:00,135.0,0.78,139.0,0.93,12.17,47.59359,-54.27349
2023-06-14 09:14:00+00:00,212.0,1.66,213.0,1.96,12.73,47.59359,-54.27349
2023-06-14 09:24:00+00:00,161.0,1.22,161.0,1.27,12.73,47.59359,-54.27349
2023-06-14 09:34:00+00:00,117.0,0.39,120.0,0.45,12.73,47.59359,-54.27349
2023-06-14 09:44:00+00:00,69.0,0.36,52.0,0.43,12.73,47.59359,-54.27349
2023-06-14 09:54:00+00:00,332.0,0.73,328.0,0.79,12.73,47.59359,-54.27349
2023-06-14 10:04:00+00:00,310.0,0.34,308.0,0.38,12.73,47.59359,-54.27349
2023-06-14 10:14:00+00:00,197.0,0.62,208.0,0.69,13.53,47.59359,-54.27349
2023-06-14 10:24:00+00:00,180.0,0.53,185.0,0.58,13.53,47.59359,-54.27349
2023-06-14 10:34:00+00:00,148.0,0.42,142.0,0.5,13.53,47.59359,-54.27349
2023-06-14 10:44:00+00:00,157.0,1.48,156.0,1.54,13.53,47.59359,-54.27349
2023-06-14 10:54:00+00:00,145.0,1.58,145.0,1.65,13.53,47.59359,-54.27349
2023-06-14 11:04:00+00:00,136.0,1.62,140.0,1.78,13.53,47.59359,-54.27349
2023-06-14 11:14:00+00:00,141.0,1.89,144.0,2.06,13.53,47.59359,-54.27349
2023-06-14 11:24:00+00:00,145.0,1.52,147.0,1.78,13.53,47.59359,-54.27349
2023-06-14 11:34:00+00:00,148.0,1.53,150.0,1.62,13.53,47.59359,-54.27349
2023-06-14 11:44:00+00:00,145.0,1.15,144.0,1.25,13.53,47.59359,-54.27349
2023-06-14 11:54:00+00:00,114.0,0.47,130.0,0.79,13.53,47.59359,-54.27349
2023-06-14 12:04:00+00:00,0.0,0.61,352.0,0.74,13.53,47.59359,-54.27349
2023-06-14 12:14:01+00:00,1.0,0.87,357.0,0.97,13.76,47.59359,-54.27349
2023-06-14 12:24:01+00:00,345.0,1.15,345.0,1.22,13.76,47.59359,-54.27349
2023-06-14 12:34:01+00:00,349.0,1.58,349.0,1.72,13.76,47.59359,-54.27349
2023-06-14 12:44:01+00:00,345.0,1.01,345.0,1.1,13.76,47.59359,-54.27349
2023-06-14 12:54:01+00:00,325.0,0.76,324.0,0.84,13.76,47.59359,-54.27349
2023-06-14 13:04:01+00:00,0.0,0.37,345.0,0.52,13.76,47.59359,-54.27349
2023-06-14 13:14:00+00:00,258.0,0.05,280.0,0.65,14.24,47.59359,-54.27349
2023-06-14 13:24:00+00:00,214.0,1.37,213.0,1.63,14.24,47.59359,-54.27349
2023-06-14 13:34:00+00:00,204.0,2.29,210.0,2.61,14.24,47.59359,-54.27349
2023-06-14 13:44:00+00:00,211.0,3.41,214.0,3.68,14.24,47.59359,-54.27349
2023-06-14 13:54:00+00:00,215.0,3.47,225.0,4.19,14.24,47.59359,-54.27349
2023-06-14 14:04:00+00:00,213.0,3.5,224.0,4.21,14.24,47.59359,-54.27349
2023-06-14 14:14:00+00:00,209.0,4.5,211.0,4.73,14.32,47.59359,-54.27349
2023-06-14 14:24:00+00:00,208.0,4.9,208.0,5.08,14.32,47.59359,-54.27349
2023-06-14 14:34:00+00:00,201.0,4.66,203.0,5.07,14.32,47.59359,-54.27349
2023-06-14 14:44:00+00:00,200.0,5.51,202.0,5.72,14.32,47.59359,-54.27349
2023-06-14 14:54:00+00:00,197.0,5.41,200.0,5.78,14.32,47.59359,-54.27349
2023-06-14 15:04:00+00:00,197.0,5.2,199.0,5.68,14.32,47.59359,-54.27349
2023-06-14 15:14:00+00:00,204.0,5.98,209.0,6.43,14.32,47.59359,-54.27349
2023-06-14 15:24:00+00:00,205.0,6.06,208.0,6.38,14.32,47.59359,-54.27349
2023-06-14 15:34:00+00:00,212.0,6.69,213.0,6.93,14.32,47.59359,-54.27349
2023-06-14 15:44:00+00:00,210.0,6.03,210.0,6.4,14.32,47.59359,-54.27349
2023-06-14 15:54:00+00:00,211.0,5.32,214.0,5.58,14.32,47.59359,-54.27349
2023-06-14 16:04:00+00:00,201.0,4.79,202.0,5.29,14.32,47.59359,-54.27349
2023-06-14 16:14:01+00:00,207.0,4.54,207.0,5.31,14.32,47.59359,-54.27349
2023-06-14 16:24:01+00:00,215.0,5.94,217.0,6.76,14.32,47.59359,-54.27349
2023-06-14 16:34:01+00:00,179.0,3.55,180.0,3.96,14.32,47.59359,-54.27349
2023-06-14 16:44:01+00:00,203.0,4.23,214.0,5.57,14.32,47.59359,-54.27349
2023-06-14 16:54:01+00:00,192.0,5.32,188.0,5.97,14.32,47.59359,-54.27349
2023-06-14 17:04:01+00:00,212.0,6.39,209.0,6.88,14.32,47.59359,-54.27349
2023-06-14 17:14:00+00:00,209.0,5.65,213.0,6.93,14.08,47.59359,-54.27349
2023-06-14 17:24:00+00:00,198.0,7.02,198.0,7.5,14.08,47.59359,-54.27349
2023-06-14 17:34:00+00:00,203.0,7.13,203.0,7.81,14.08,47.59359,-54.27349
2023-06-14 17:44:00+00:00,201.0,6.83,200.0,7.41,14.08,47.59359,-54.27349
2023-06-14 17:54:00+00:00,202.0,7.01,202.0,7.56,14.08,47.59359,-54.27349
2023-06-14 18:04:00+00:00,201.0,7.45,201.0,8.01,14.08,47.59359,-54.27349
2023-06-14 18:14:00+00:00,196.0,7.09,201.0,8.27,13.76,47.59359,-54.27349
2023-06-14 18:24:00+00:00,211.0,9.32,210.0,10.78,13.76,47.59359,-54.27349
2023-06-14 18:34:00+00:00,207.0,7.63,208.0,8.63,13.76,47.59359,-54.27349
2023-06-14 18:44:00+00:00,209.0,8.9,211.0,9.89,13.76,47.59359,-54.27349
2023-06-14 18:54:00+00:00,208.0,9.28,206.0,10.2,13.76,47.59359,-54.27349
2023-06-14 19:04:00+00:00,205.0,8.71,207.0,9.99,13.76,47.59359,-54.27349
2023-06-14 19:14:01+00:00,205.0,9.02,204.0,10.16,13.68,47.59359,-54.27349
2023-06-14 19:24:01+00:00,202.0,9.28,198.0,11.06,13.68,47.59359,-54.27349
2023-06-14 19:34:01+00:00,203.0,9.59,202.0,10.94,13.68,47.59359,-54.27349
2023-06-14 19:44:01+00:00,202.0,8.67,205.0,9.59,13.68,47.59359,-54.27349
2023-06-14 19:54:01+00:00,202.0,9.43,203.0,10.39,13.68,47.59359,-54.27349
2023-06-14 20:04:01+00:00,202.0,9.17,200.0,9.95,13.68,47.59359,-54.27349
2023-06-14 20:14:01+00:00,202.0,8.58,203.0,9.62,13.68,47.59359,-54.27349
2023-06-14 20:24:01+00:00,203.0,8.21,202.0,9.04,13.68,47.59359,-54.27349
2023-06-14 20:34:01+00:00,205.0,8.59,204.0,9.9,13.68,47.59359,-54.27349
2023-06-14 20:44:01+00:00,205.0,8.68,206.0,9.45,13.68,47.59359,-54.27349
2023-06-14 20:54:01+00:00,207.0,8.11,207.0,9.12,13.68,47.59359,-54.27349
2023-06-14 21:04:01+00:00,206.0,8.09,207.0,9.15,13.68,47.59359,-54.27349
2023-06-14 21:14:01+00:00,205.0,7.71,207.0,8.71,13.68,47.59359,-54.27349
2023-06-14 21:24:01+00:00,204.0,8.13,207.0,9.36,13.68,47.59359,-54.27349
2023-06-14 21:34:01+00:00,207.0,7.72,210.0,8.61,13.68,47.59359,-54.27349
2023-06-14 21:44:01+00:00,209.0,6.92,206.0,7.67,13.68,47.59359,-54.27349
2023-06-14 21:54:01+00:00,210.0,6.49,206.0,7.28,13.68,47.59359,-54.27349
2023-06-14 22:04:01+00:00,202.0,5.7,203.0,6.39,13.68,47.59359,-54.27349
2023-06-14 22:14:01+00:00,203.0,5.53,207.0,6.72,13.44,47.59359,-54.27349
2023-06-14 22:24:01+00:00,212.0,6.74,211.0,7.49,13.44,47.59359,-54.27349
2023-06-14 22:34:01+00:00,211.0,7.13,213.0,7.67,13.44,47.59359,-54.27349
2023-06-14 22:44:01+00:00,210.0,7.04,210.0,7.71,13.44,47.59359,-54.27349
2023-06-14 22:54:01+00:00,212.0,7.81,214.0,8.41,13.44,47.59359,-54.27349
2023-06-14 23:04:01+00:00,211.0,6.54,210.0,7.41,13.44,47.59359,-54.27349
2023-06-14 23:14:00+00:00,217.0,6.46,216.0,7.72,13.05,47.59359,-54.27349
2023-06-14 23:24:00+00:00,219.0,6.49,217.0,7.2,13.05,47.59359,-54.27349
2023-06-14 23:34:00+00:00,222.0,6.1,219.0,6.85,13.05,47.59359,-54.27349
2023-06-14 23:44:00+00:00,218.0,5.41,216.0,6.09,13.05,47.59359,-54.27349
2023-06-14 23:54:00+00:00,216.0,5.71,218.0,6.37,13.05,47.59359,-54.27349
